THA110 VTBS-VTCC

Flight info

Callsign THA110
Flight time 1h 8m
Altitude 36000
Route OLVUK1E OLVUK Y26 MARNI MARNI2A
Aircraft A21N/M-SDFGHIJ4J5M1RWY/LB1

Departure

Time 2026-05-05 18:57
Airport Suvarnabhumi Airport (VTBS)

Arrival

Time 2026-05-05 20:05
Airport Chiang Mai International Airport (VTCC)
Time Latitude Longitude Altitude Speed Heading
2026-05-05 18:15 13.68707 100.75389 19 ft 0 kts 284°
2026-05-05 18:43 13.68704 100.75403 18 ft 4 kts 285°
2026-05-05 18:44 13.68696 100.75430 18 ft 4 kts 284°
2026-05-05 18:44 13.68691 100.75457 18 ft 4 kts 276°
2026-05-05 18:44 13.68692 100.75481 18 ft 5 kts 235°
2026-05-05 18:44 13.68709 100.75491 18 ft 5 kts 194°
2026-05-05 18:45 13.68720 100.75494 18 ft 1 kts 194°
2026-05-05 18:48 13.68710 100.75491 18 ft 3 kts 194°
2026-05-05 18:48 13.68682 100.75484 18 ft 5 kts 194°
2026-05-05 18:49 13.68636 100.75472 18 ft 8 kts 194°
2026-05-05 18:49 13.68572 100.75455 18 ft 10 kts 194°
2026-05-05 18:49 13.68521 100.75407 19 ft 9 kts 268°
2026-05-05 18:49 13.68536 100.75334 18 ft 12 kts 284°
2026-05-05 18:50 13.68558 100.75243 18 ft 14 kts 284°
2026-05-05 18:50 13.68586 100.75136 18 ft 17 kts 285°
2026-05-05 18:50 13.68616 100.75014 19 ft 19 kts 284°
2026-05-05 18:50 13.68650 100.74877 19 ft 21 kts 284°
2026-05-05 18:51 13.68688 100.74728 19 ft 23 kts 284°
2026-05-05 18:51 13.68728 100.74567 19 ft 23 kts 284°
2026-05-05 18:51 13.68768 100.74407 19 ft 19 kts 284°
2026-05-05 18:51 13.68803 100.74272 19 ft 19 kts 284°
2026-05-05 18:52 13.68829 100.74165 19 ft 11 kts 284°
2026-05-05 18:52 13.68886 100.74121 21 ft 12 kts
2026-05-05 18:52 13.68973 100.74143 19 ft 14 kts 14°
2026-05-05 18:52 13.69075 100.74169 19 ft 16 kts 14°
2026-05-05 18:53 13.69191 100.74200 18 ft 18 kts 14°
2026-05-05 18:53 13.69320 100.74234 18 ft 20 kts 14°
2026-05-05 18:53 13.69463 100.74271 18 ft 22 kts 14°
2026-05-05 18:53 13.69617 100.74312 18 ft 24 kts 14°
2026-05-05 18:54 13.69784 100.74356 18 ft 26 kts 14°
2026-05-05 18:54 13.69944 100.74398 19 ft 23 kts 14°
2026-05-05 18:54 13.70079 100.74434 19 ft 16 kts 14°
2026-05-05 18:54 13.70146 100.74451 19 ft 7 kts 14°
2026-05-05 18:55 13.70199 100.74456 20 ft 9 kts 343°
2026-05-05 18:55 13.70231 100.74411 21 ft 5 kts 285°
2026-05-05 18:55 13.70232 100.74406 19 ft 0 kts 284°
2026-05-05 18:56 13.70233 100.74404 19 ft 1 kts 284°
2026-05-05 18:56 13.70237 100.74385 19 ft 4 kts 284°
2026-05-05 18:56 13.70247 100.74346 21 ft 7 kts 284°
2026-05-05 18:56 13.70249 100.74290 21 ft 9 kts 219°
2026-05-05 18:57 13.70163 100.74266 20 ft 29 kts 194°
2026-05-05 18:57 13.69694 100.74143 17 ft 108 kts 195°
2026-05-05 18:57 13.68759 100.73897 56 ft 161 kts 194°
2026-05-05 18:57 13.67654 100.73617 645 ft 165 kts 194°
2026-05-05 18:58 13.66525 100.73324 1365 ft 168 kts 194°
2026-05-05 18:58 13.65386 100.73021 2115 ft 169 kts 195°
2026-05-05 18:58 13.64235 100.72715 2874 ft 174 kts 194°
2026-05-05 18:58 13.62978 100.72386 3511 ft 198 kts 194°
2026-05-05 18:59 13.61598 100.72024 4165 ft 218 kts 194°
2026-05-05 18:59 13.60032 100.71612 4712 ft 244 kts 194°
2026-05-05 18:59 13.58327 100.71160 5376 ft 262 kts 194°
2026-05-05 18:59 13.56527 100.70654 6093 ft 276 kts 199°
2026-05-05 19:00 13.54839 100.69667 6918 ft 285 kts 222°
2026-05-05 19:00 13.53670 100.68011 7824 ft 290 kts 247°
2026-05-05 19:00 13.53277 100.65957 8533 ft 302 kts 272°
2026-05-05 19:00 13.53675 100.63777 9081 ft 319 kts 285°
2026-05-05 19:01 13.54346 100.61544 9671 ft 335 kts 292°
2026-05-05 19:01 13.55552 100.59458 10257 ft 347 kts 312°
2026-05-05 19:01 13.57451 100.57914 11030 ft 351 kts 333°
2026-05-05 19:01 13.59774 100.57168 11847 ft 353 kts 354°
2026-05-05 19:02 13.62253 100.57161 12690 ft 357 kts
2026-05-05 19:02 13.64715 100.57337 13497 ft 361 kts
2026-05-05 19:02 13.67242 100.57486 14288 ft 366 kts
2026-05-05 19:02 13.69810 100.57557 15036 ft 370 kts
2026-05-05 19:03 13.72417 100.57623 15659 ft 376 kts
2026-05-05 19:03 13.75048 100.57687 15938 ft 379 kts
2026-05-05 19:03 13.77678 100.57469 15992 ft 380 kts 347°
2026-05-05 19:03 13.80098 100.56476 15987 ft 381 kts 331°
2026-05-05 19:04 13.82351 100.55044 15964 ft 381 kts 328°
2026-05-05 19:04 13.84590 100.53564 15913 ft 381 kts 328°
2026-05-05 19:04 13.86832 100.52111 16116 ft 381 kts 328°
2026-05-05 19:04 13.89083 100.50678 16726 ft 384 kts 329°
2026-05-05 19:05 13.91381 100.49231 17429 ft 388 kts 329°
2026-05-05 19:05 13.93717 100.47818 18079 ft 392 kts 333°
2026-05-05 19:05 13.96236 100.46788 18700 ft 394 kts 342°
2026-05-05 19:05 13.98874 100.45950 19316 ft 398 kts 343°
2026-05-05 19:06 14.01545 100.45123 19913 ft 402 kts 343°
2026-05-05 19:06 14.04241 100.44282 20508 ft 406 kts 343°
2026-05-05 19:06 14.06955 100.43425 21086 ft 409 kts 343°
2026-05-05 19:06 14.09659 100.42568 21637 ft 413 kts 343°
2026-05-05 19:07 14.12422 100.41697 22193 ft 417 kts 343°
2026-05-05 19:07 14.14306 100.41099 22580 ft 419 kts 343°
2026-05-05 19:07 14.18005 100.39919 23246 ft 423 kts 342°
2026-05-05 19:07 14.20805 100.38868 23734 ft 426 kts 339°
2026-05-05 19:08 14.23552 100.37780 24165 ft 430 kts 339°
2026-05-05 19:08 14.26389 100.36651 24598 ft 433 kts 339°
2026-05-05 19:08 14.29170 100.35553 25006 ft 436 kts 339°
2026-05-05 19:08 14.32019 100.34429 25430 ft 438 kts 339°
2026-05-05 19:09 14.34875 100.33303 25857 ft 441 kts 339°
2026-05-05 19:09 14.37760 100.32166 26279 ft 443 kts 339°
2026-05-05 19:09 14.40645 100.31033 26671 ft 446 kts 339°
2026-05-05 19:09 14.43532 100.29890 27046 ft 448 kts 339°
2026-05-05 19:10 14.46457 100.28735 27412 ft 450 kts 339°
2026-05-05 19:10 14.49356 100.27596 27765 ft 453 kts 339°
2026-05-05 19:10 14.52314 100.26432 28122 ft 455 kts 339°
2026-05-05 19:10 14.55284 100.25262 28488 ft 457 kts 339°
2026-05-05 19:11 14.58264 100.24086 28837 ft 459 kts 339°
2026-05-05 19:11 14.61267 100.22892 29175 ft 461 kts 339°
2026-05-05 19:11 14.64277 100.21699 29505 ft 463 kts 339°
2026-05-05 19:11 14.67290 100.20599 29870 ft 464 kts 341°
2026-05-05 19:12 14.70355 100.19574 30318 ft 463 kts 342°
2026-05-05 19:12 14.73429 100.18556 30750 ft 462 kts 341°
2026-05-05 19:12 14.76494 100.17534 31200 ft 461 kts 341°
2026-05-05 19:12 14.79541 100.16513 31640 ft 460 kts 341°
2026-05-05 19:13 14.81562 100.15841 31941 ft 459 kts 341°
2026-05-05 19:13 14.85582 100.14510 32514 ft 457 kts 341°
2026-05-05 19:13 14.88610 100.13503 32938 ft 456 kts 341°
2026-05-05 19:13 14.91630 100.12496 33329 ft 455 kts 341°
2026-05-05 19:14 14.93662 100.11818 33605 ft 455 kts 341°
2026-05-05 19:14 14.96669 100.10818 34004 ft 453 kts 341°
2026-05-05 19:14 14.99670 100.09820 34371 ft 452 kts 341°
2026-05-05 19:14 15.02633 100.08835 34705 ft 452 kts 341°
2026-05-05 19:15 15.05630 100.07836 35072 ft 451 kts 341°
2026-05-05 19:15 15.08571 100.06861 35414 ft 449 kts 341°
2026-05-05 19:15 15.11549 100.05875 35719 ft 448 kts 341°
2026-05-05 19:15 15.14530 100.04884 35858 ft 448 kts 341°
2026-05-05 19:16 15.20468 100.02909 35860 ft 448 kts 341°
2026-05-05 19:16 15.26397 100.00926 35847 ft 447 kts 341°
2026-05-05 19:17 15.32299 99.98959 35847 ft 447 kts 341°
2026-05-05 19:17 15.38233 99.96974 35840 ft 446 kts 341°
2026-05-05 19:18 15.44148 99.94997 35829 ft 447 kts 341°
2026-05-05 19:18 15.50040 99.93025 35831 ft 446 kts 341°
2026-05-05 19:19 15.55959 99.91042 35834 ft 446 kts 341°
2026-05-05 19:19 15.61824 99.89077 35827 ft 446 kts 341°
2026-05-05 19:20 15.67732 99.87102 35829 ft 445 kts 341°
2026-05-05 19:20 15.73629 99.85123 35824 ft 446 kts 341°
2026-05-05 19:21 15.79539 99.83137 35816 ft 446 kts 341°
2026-05-05 19:21 15.85445 99.81154 35819 ft 446 kts 340°
2026-05-05 19:22 15.91319 99.79184 35819 ft 446 kts 341°
2026-05-05 19:22 15.97263 99.77182 35821 ft 446 kts 341°
2026-05-05 19:23 16.03155 99.75202 35819 ft 446 kts 341°
2026-05-05 19:23 16.09063 99.73214 35811 ft 446 kts 341°
2026-05-05 19:24 16.14981 99.71220 35812 ft 446 kts 340°
2026-05-05 19:24 16.20796 99.69258 35810 ft 446 kts 340°
2026-05-05 19:25 16.26699 99.67269 35809 ft 445 kts 341°
2026-05-05 19:25 16.32581 99.65285 35811 ft 446 kts 340°
2026-05-05 19:26 16.38493 99.63287 35811 ft 445 kts 341°
2026-05-05 19:26 16.44406 99.61292 35811 ft 445 kts 340°
2026-05-05 19:27 16.50274 99.59313 35806 ft 446 kts 340°
2026-05-05 19:27 16.56184 99.57313 35799 ft 446 kts 341°
2026-05-05 19:28 16.62089 99.55321 35803 ft 445 kts 340°
2026-05-05 19:28 16.67991 99.53320 35800 ft 445 kts 340°
2026-05-05 19:29 16.73894 99.51321 35803 ft 445 kts 340°
2026-05-05 19:29 16.79761 99.49420 35802 ft 445 kts 342°
2026-05-05 19:30 16.85694 99.47526 35803 ft 444 kts 341°
2026-05-05 19:30 16.88636 99.46578 35624 ft 439 kts 341°
2026-05-05 19:30 16.91533 99.45639 35297 ft 443 kts 341°
2026-05-05 19:31 16.94469 99.44688 34787 ft 442 kts 341°
2026-05-05 19:31 16.97412 99.43736 34143 ft 443 kts 341°
2026-05-05 19:31 17.00370 99.42776 33464 ft 444 kts 341°
2026-05-05 19:31 17.03322 99.41822 32792 ft 445 kts 341°
2026-05-05 19:32 17.06273 99.40865 32179 ft 444 kts 341°
2026-05-05 19:32 17.09220 99.39909 31562 ft 443 kts 341°
2026-05-05 19:32 17.12168 99.38951 30957 ft 441 kts 341°
2026-05-05 19:32 17.15089 99.38004 30366 ft 439 kts 341°
2026-05-05 19:33 17.18002 99.37058 29802 ft 437 kts 341°
2026-05-05 19:33 17.20906 99.36119 29210 ft 435 kts 341°
2026-05-05 19:33 17.23778 99.35186 28606 ft 433 kts 341°
2026-05-05 19:33 17.26663 99.34248 28012 ft 431 kts 341°
2026-05-05 19:34 17.29481 99.33331 27444 ft 429 kts 341°
2026-05-05 19:34 17.32332 99.32405 26874 ft 426 kts 341°
2026-05-05 19:34 17.35160 99.31488 26262 ft 425 kts 341°
2026-05-05 19:35 17.40726 99.29676 25109 ft 420 kts 341°
2026-05-05 19:35 17.43502 99.28770 24535 ft 417 kts 341°
2026-05-05 19:35 17.46256 99.27875 23948 ft 414 kts 341°
2026-05-05 19:35 17.48975 99.26991 23370 ft 411 kts 341°
2026-05-05 19:36 17.51698 99.26103 22794 ft 406 kts 341°
2026-05-05 19:36 17.54376 99.25231 22253 ft 401 kts 341°
2026-05-05 19:36 17.57017 99.24373 21686 ft 396 kts 341°
2026-05-05 19:36 17.59641 99.23517 21102 ft 393 kts 341°
2026-05-05 19:37 17.62242 99.22671 20544 ft 387 kts 342°
2026-05-05 19:37 17.64806 99.21834 20004 ft 383 kts 341°
2026-05-05 19:37 17.67334 99.21009 19486 ft 377 kts 341°
2026-05-05 19:37 17.69823 99.20197 19001 ft 371 kts 341°
2026-05-05 19:38 17.72242 99.19403 18533 ft 366 kts 341°
2026-05-05 19:38 17.74661 99.18612 18086 ft 360 kts 341°
2026-05-05 19:38 17.77056 99.17830 17638 ft 360 kts 341°
2026-05-05 19:38 17.79420 99.17059 17205 ft 361 kts 341°
2026-05-05 19:39 17.81847 99.16264 16743 ft 361 kts 341°
2026-05-05 19:39 17.84251 99.15478 16282 ft 362 kts 342°
2026-05-05 19:39 17.86649 99.14694 15831 ft 362 kts 341°
2026-05-05 19:39 17.89011 99.13919 15398 ft 361 kts 341°
2026-05-05 19:40 17.91410 99.13134 14984 ft 360 kts 341°
2026-05-05 19:40 17.93796 99.12354 14549 ft 359 kts 341°
2026-05-05 19:40 17.96178 99.11572 14097 ft 358 kts 341°
2026-05-05 19:40 17.98554 99.10795 13661 ft 354 kts 341°
2026-05-05 19:41 18.00887 99.10027 13242 ft 348 kts 341°
2026-05-05 19:41 18.03185 99.09276 12815 ft 342 kts 341°
2026-05-05 19:41 18.05407 99.08550 12409 ft 336 kts 341°
2026-05-05 19:41 18.07630 99.07822 12032 ft 330 kts 341°
2026-05-05 19:42 18.09808 99.07107 11685 ft 327 kts 341°
2026-05-05 19:42 18.11977 99.06396 11320 ft 327 kts 341°
2026-05-05 19:42 18.14155 99.05681 10947 ft 327 kts 341°
2026-05-05 19:42 18.16321 99.04966 10624 ft 322 kts 341°
2026-05-05 19:43 18.18432 99.04267 10406 ft 314 kts 340°
2026-05-05 19:43 18.20481 99.03597 10244 ft 302 kts 341°
2026-05-05 19:43 18.22448 99.02955 10003 ft 297 kts 341°
2026-05-05 19:43 18.24411 99.02306 9642 ft 295 kts 340°
2026-05-05 19:44 18.26366 99.01661 9297 ft 294 kts 341°
2026-05-05 19:44 18.28325 99.01019 8939 ft 295 kts 340°
2026-05-05 19:44 18.30264 99.00382 8606 ft 295 kts 341°
2026-05-05 19:44 18.32206 98.99745 8290 ft 295 kts 341°
2026-05-05 19:45 18.34166 98.99101 7971 ft 295 kts 340°
2026-05-05 19:45 18.36113 98.98463 7652 ft 292 kts 341°
2026-05-05 19:45 18.37517 98.98002 7409 ft 289 kts 341°
2026-05-05 19:45 18.39439 98.97365 7074 ft 287 kts 341°
2026-05-05 19:46 18.41330 98.96742 6855 ft 280 kts 341°
2026-05-05 19:46 18.43146 98.96227 6801 ft 268 kts 351°
2026-05-05 19:46 18.44996 98.96147 6598 ft 266 kts 359°
2026-05-05 19:46 18.46851 98.96168 6278 ft 265 kts 359°
2026-05-05 19:47 18.48680 98.96210 5934 ft 264 kts 359°
2026-05-05 19:47 18.50535 98.96220 5554 ft 264 kts 359°
2026-05-05 19:47 18.52350 98.96226 5306 ft 258 kts 359°
2026-05-05 19:47 18.54139 98.96230 5081 ft 254 kts 359°
2026-05-05 19:48 18.55899 98.96235 4815 ft 252 kts 359°
2026-05-05 19:48 18.57654 98.96238 4445 ft 252 kts 359°
2026-05-05 19:48 18.59396 98.96244 4064 ft 247 kts
2026-05-05 19:48 18.61069 98.96248 3764 ft 232 kts 360°
2026-05-05 19:49 18.62583 98.96253 3566 ft 204 kts
2026-05-05 19:49 18.63502 98.96254 3469 ft 196 kts
2026-05-05 19:49 18.65285 98.96259 3084 ft 187 kts
2026-05-05 19:49 18.66485 98.96262 2813 ft 163 kts
2026-05-05 19:50 18.67534 98.96265 2525 ft 141 kts
2026-05-05 19:50 18.68489 98.96267 2328 ft 135 kts
2026-05-05 19:50 18.69412 98.96269 2195 ft 129 kts
2026-05-05 19:50 18.70311 98.96272 2024 ft 129 kts
2026-05-05 19:51 18.71217 98.96274 1888 ft 130 kts
2026-05-05 19:51 18.72127 98.96277 1699 ft 131 kts
2026-05-05 19:51 18.73035 98.96280 1501 ft 130 kts
2026-05-05 19:51 18.73933 98.96280 1306 ft 131 kts
2026-05-05 19:52 18.74853 98.96285 1140 ft 131 kts
2026-05-05 19:52 18.75765 98.96288 1050 ft 132 kts
2026-05-05 19:52 18.76693 98.96302 1175 ft 141 kts
2026-05-05 19:52 18.77699 98.96391 1734 ft 151 kts 15°
2026-05-05 19:53 18.78626 98.97077 2538 ft 179 kts 38°
2026-05-05 19:53 18.79691 98.97972 2922 ft 209 kts 39°
2026-05-05 19:53 18.80838 98.98962 3048 ft 214 kts 39°
2026-05-05 19:53 18.81984 98.99945 3277 ft 213 kts 39°
2026-05-05 19:54 18.83141 99.00939 4228 ft 216 kts 41°
2026-05-05 19:54 18.83998 99.02226 5217 ft 218 kts 66°
2026-05-05 19:54 18.84564 99.03727 6008 ft 221 kts 70°
2026-05-05 19:54 18.85017 99.05280 6450 ft 223 kts 85°
2026-05-05 19:55 18.84785 99.06885 6667 ft 224 kts 115°
2026-05-05 19:55 18.83787 99.08150 6776 ft 231 kts 147°
2026-05-05 19:55 18.82299 99.08687 6839 ft 230 kts 176°
2026-05-05 19:55 18.80695 99.08675 6883 ft 230 kts 183°
2026-05-05 19:56 18.79098 99.08635 6891 ft 230 kts 182°
2026-05-05 19:56 18.77489 99.08613 6907 ft 231 kts 182°
2026-05-05 19:56 18.75887 99.08595 6916 ft 230 kts 182°
2026-05-05 19:56 18.74278 99.08580 6941 ft 230 kts 182°
2026-05-05 19:57 18.72668 99.08573 6968 ft 230 kts 182°
2026-05-05 19:57 18.71609 99.08564 6976 ft 230 kts 182°
2026-05-05 19:57 18.69479 99.08558 6980 ft 231 kts 182°
2026-05-05 19:57 18.67873 99.08551 6986 ft 231 kts 182°
2026-05-05 19:58 18.66269 99.08544 6981 ft 226 kts 181°
2026-05-05 19:58 18.64750 99.08542 6982 ft 212 kts 182°
2026-05-05 19:58 18.63778 99.08540 6984 ft 211 kts 182°
2026-05-05 19:58 18.62304 99.08532 6982 ft 211 kts 182°
2026-05-05 19:59 18.60363 99.08441 6974 ft 210 kts 194°
2026-05-05 19:59 18.59490 99.08071 6833 ft 202 kts 211°
2026-05-05 19:59 18.58486 99.07072 6527 ft 196 kts 234°
2026-05-05 19:59 18.57909 99.05309 6100 ft 194 kts 264°
2026-05-05 20:00 18.57977 99.03889 5779 ft 193 kts 274°
2026-05-05 20:00 18.58053 99.02955 5657 ft 186 kts 273°
2026-05-05 20:00 18.58146 99.01623 5371 ft 182 kts 272°
2026-05-05 20:00 18.58236 99.00291 5029 ft 181 kts 272°
2026-05-05 20:01 18.58322 98.98971 4604 ft 179 kts 272°
2026-05-05 20:01 18.58610 98.97701 4094 ft 183 kts 294°
2026-05-05 20:01 18.59455 98.96698 3722 ft 185 kts 324°
2026-05-05 20:01 18.60687 98.96303 3525 ft 186 kts 352°
2026-05-05 20:02 18.61978 98.96248 3483 ft 185 kts
2026-05-05 20:02 18.63248 98.96252 3358 ft 184 kts
2026-05-05 20:02 18.64541 98.96257 3136 ft 183 kts
2026-05-05 20:02 18.65796 98.96259 2895 ft 177 kts
2026-05-05 20:03 18.66956 98.96263 2637 ft 153 kts
2026-05-05 20:03 18.67941 98.96265 2428 ft 135 kts
2026-05-05 20:03 18.68876 98.96268 2276 ft 133 kts
2026-05-05 20:03 18.69793 98.96270 2117 ft 132 kts
2026-05-05 20:04 18.70704 98.96273 1951 ft 130 kts
2026-05-05 20:04 18.71604 98.96275 1776 ft 130 kts
2026-05-05 20:04 18.72511 98.96278 1608 ft 130 kts
2026-05-05 20:04 18.73408 98.96279 1419 ft 130 kts 360°
2026-05-05 20:05 18.74312 98.96281 1261 ft 130 kts 360°
2026-05-05 20:05 18.75217 98.96285 1099 ft 130 kts
2026-05-05 20:05 18.76060 98.96289 1037 ft 98 kts 360°
2026-05-05 20:05 18.76484 98.96288 1037 ft 45 kts
2026-05-05 20:06 18.76790 98.96289 1037 ft 35 kts
2026-05-05 20:06 18.76987 98.96288 1037 ft 26 kts 360°
2026-05-05 20:06 18.77086 98.96288 1037 ft 9 kts 360°
2026-05-05 20:06 18.77129 98.96308 1037 ft 6 kts 55°
2026-05-05 20:07 18.77136 98.96350 1037 ft 7 kts 88°
2026-05-05 20:07 18.77138 98.96414 1037 ft 9 kts 89°
2026-05-05 20:07 18.77139 98.96485 1037 ft 10 kts 90°
2026-05-05 20:07 18.77121 98.96552 1037 ft 7 kts 120°
2026-05-05 20:08 18.77078 98.96599 1037 ft 10 kts 142°
2026-05-05 20:08 18.77019 98.96634 1037 ft 8 kts 158°
2026-05-05 20:08 18.76991 98.96643 1037 ft 3 kts 165°
2026-05-05 20:08 18.76976 98.96671 1037 ft 6 kts 97°
2026-05-05 20:09 18.76976 98.96711 1037 ft 6 kts 89°
2026-05-05 20:09 18.76976 98.96725 1037 ft 2 kts 90°
2026-05-05 20:09 18.76976 98.96731 1037 ft 0 kts 90°